Weather History for KDIK - October, 2011

Change the Weather History Date:

Saturday, October 22, 2011

  Actual Average Record
Temperature  
Mean Temperature 51 °F 41 °F  
Max Temperature 66 °F 54 °F 81 °F (1963)
Min Temperature 35 °F 29 °F 3 °F (2002)
Degree Days  
Heating Degree Days 14 24  
Month to date heating degree days 307 423  
Since 1 July heating degree days 543 777  
Cooling Degree Days 0 0  
Month to date cooling degree days 16 0  
Year to date cooling degree days 358 418  
Moisture  
Dew Point 35 °F    
Average Humidity 61    
Maximum Humidity 92    
Minimum Humidity 30    
Precipitation  
Precipitation T in 0.04 in 0.57 in (1980)
Month to date precipitation 0.29 0.95  
Year to date precipitation 17.28 14.71  
Sea Level Pressure  
Sea Level Pressure 29.96 in    
Wind  
Wind Speed 12 mph (WSW)    
Max Wind Speed 26 mph    
Max Gust Speed 33 mph    
Visibility 8 miles    
Events      
T = Trace of Precipitation, MM = Missing Value Source: NWS Daily Summary

Daily Weather History Graph

Daily Weather History Graph

Search for Another Location

Airport or City:

Trip Planner

Search our weather history database for the weather conditions in past years. The results will help you decide how hot, cold, wet, or windy it might be!

Date:

Astronomy

Oct. 22, 2011 Rise Set
Actual Time 7:18 AM MDT 5:52 PM MDT
Civil Twilight 6:47 AM MDT 6:22 PM MDT
Nautical Twilight 6:12 AM MDT 6:58 PM MDT
Astronomical Twilight 5:37 AM MDT 7:33 PM MDT
Moon 2:01 AM MDT (10/22) 3:25 PM MDT (10/22)
Length of Visible Light 11h 35m
Length of Day
10h 33m
Waning Crescent, 23% of the Moon is Illuminated
Oct 22
Waning Crescent
Oct 26
New
Nov 2
First Quarter
Nov 10
Full
Nov 18
Last Quarter

Hourly Weather History & Observations

Time (MDT) Temp. Windchill Dew Point Humidity Pressure Visibility Wind Dir Wind Speed Gust Speed Precip Events Conditions
12:56 AM 36.0 °F 30.3 °F 32.0 °F 86% 30.07 in 10.0 mi South 6.9 mph - N/A   Clear
1:56 AM 35.1 °F 30.1 °F 32.0 °F 89% 30.06 in 9.0 mi South 5.8 mph - N/A   Clear
2:56 AM 37.9 °F 30.9 °F 34.0 °F 86% 30.03 in 10.0 mi South 10.4 mph - N/A   Partly Cloudy
3:56 AM 39.0 °F 32.8 °F 35.1 °F 86% 30.02 in 10.0 mi South 9.2 mph - N/A   Clear
4:56 AM 39.9 °F 37.8 °F 36.0 °F 86% 30.02 in 10.0 mi South 3.5 mph - N/A   Mostly Cloudy
6:56 AM 39.9 °F 33.4 °F 37.9 °F 93% 30.02 in 10.0 mi South 10.4 mph - N/A   Mostly Cloudy
7:56 AM 42.1 °F 35.7 °F 39.0 °F 89% 30.00 in 10.0 mi South 11.5 mph - N/A   Mostly Cloudy
8:56 AM 48.0 °F - 41.0 °F 77% 29.99 in 10.0 mi SSW 11.5 mph - N/A   Mostly Cloudy
9:49 AM 53.6 °F - 41.0 °F 62% 29.96 in 1.8 mi WSW 16.1 mph - N/A   Haze
10:56 AM 57.9 °F - 41.0 °F 53% 29.97 in 1.2 mi West 18.4 mph - N/A   Haze
11:46 AM 60.8 °F - 39.2 °F 45% 29.94 in 2.0 mi West 17.3 mph - N/A   Haze
11:56 AM 60.1 °F - 39.0 °F 46% 29.96 in 2.0 mi West 17.3 mph - N/A   Haze
12:56 PM 64.0 °F - 37.9 °F 38% 29.94 in 2.5 mi WNW 18.4 mph 28.8 mph N/A   Haze
1:03 PM 64.4 °F - 37.4 °F 37% 29.92 in - WNW 17.3 mph - N/A   Partly Cloudy
1:25 PM 64.4 °F - 35.6 °F 34% 29.91 in 2.5 mi WNW 17.3 mph 29.9 mph N/A   Haze
1:37 PM 64.4 °F - 35.6 °F 34% 29.91 in - WNW 23.0 mph 29.9 mph N/A   Scattered Clouds
1:56 PM 63.0 °F - 35.1 °F 35% 29.94 in - West 23.0 mph 32.2 mph N/A   Mostly Cloudy
2:56 PM 63.0 °F - 34.0 °F 34% 29.91 in - West 17.3 mph - N/A   Scattered Clouds
3:56 PM 64.0 °F - 33.1 °F 31% 29.90 in 10.0 mi WNW 26.5 mph 33.4 mph N/A   Partly Cloudy
5:56 PM 55.0 °F - 30.0 °F 38% 29.92 in 10.0 mi WNW 10.4 mph - N/A   Clear
6:56 PM 48.0 °F - 28.9 °F 48% 29.94 in 10.0 mi West 5.8 mph - N/A   Clear
7:56 PM 44.1 °F 39.0 °F 28.9 °F 55% 29.93 in 10.0 mi West 9.2 mph - N/A   Clear
8:56 PM 45.0 °F 40.6 °F 28.9 °F 53% 29.91 in 10.0 mi West 8.1 mph - N/A   Clear
9:56 PM 43.0 °F 40.3 °F 28.9 °F 58% 29.89 in 10.0 mi WSW 4.6 mph - N/A   Clear
10:56 PM 48.0 °F - 30.9 °F 52% 29.86 in 10.0 mi WSW 8.1 mph - N/A   Mostly Cloudy